FW0153 Weather Reports


time (UTC)temp
F
wind
direction
speed
knots
gust
knots
rain 1hr
in
rain 24hr
in
rain mn
in
humidity
%
barometer
mb
20260508200211 83 58 0.0 0.0 0.00 0.14 0.00 71 1009.6
20260508195505 83 140 11.3 0.0 0.00 0.14 0.00 69 1009.6
20260508195005 82 72 7.8 0.0 0.00 0.14 0.00 68 1009.9
20260508194712 81 7 3.5 0.0 0.00 0.14 0.00 74 1009.9
20260508194005 83 15 3.5 0.0 0.00 0.14 0.00 71 1009.9
20260508193505 83 9 0.0 0.0 0.00 0.14 0.00 72 1010.3
20260508193005 82 68 7.8 0.0 0.00 0.14 0.00 71 1010.3
20260508192505 82 249 7.8 0.0 0.00 0.14 0.00 72 1010.3
20260508192004 82 65 3.5 0.0 0.00 0.14 0.00 72 1010.3
20260508191505 81 42 0.0 0.0 0.00 0.14 0.00 74 1010.6
20260508191005 81 326 3.5 0.0 0.00 0.14 0.00 73 1010.6
20260508190505 81 58 7.8 0.0 0.00 0.14 0.00 73 1010.6
20260508190213 80 318 3.5 0.0 0.00 0.14 0.00 75 1010.6
20260508185504 80 13 7.8 0.0 0.00 0.14 0.00 76 1011.0
20260508185005 80 242 11.3 0.0 0.00 0.14 0.00 77 1011.0
20260508184505 79 337 3.5 0.0 0.00 0.14 0.00 78 1011.3
20260508184005 79 14 3.5 0.0 0.00 0.14 0.00 79 1011.0
20260508183505 78 314 7.8 0.0 0.00 0.14 0.00 79 1011.3
20260508183005 77 322 11.3 0.0 0.00 0.14 0.00 81 1011.3
20260508182505 77 39 3.5 0.0 0.00 0.14 0.00 81 1011.3
20260508182005 77 225 3.5 0.0 0.00 0.14 0.00 82 1011.6
20260508181505 77 340 11.3 0.0 0.00 0.14 0.00 82 1011.6
20260508181212 77 22 7.8 0.0 0.00 0.14 0.00 83 1011.3
20260508180505 75 345 3.5 0.0 0.00 0.14 0.00 86 1011.6
20260508180005 75 345 3.5 0.0 0.00 0.14 0.00 85 1011.3
20260508054005 71 149 3.5 0.0 0.00 0.02 0.00 95 1015.7
20260508053505 71 181 11.3 0.0 0.00 0.02 0.00 95 1015.7
20260508053004 71 176 7.8 0.0 0.05 0.02 0.00 95 1015.4
20260508052505 71 203 3.5 0.0 0.05 0.02 0.00 95 1014.4
20260508052005 71 106 0.0 0.0 0.00 0.01 0.00 95 1013.7
20260508051712 71 134 3.5 0.0 0.07 0.01 0.00 95 1013.3
20260508051008 71 76 0.0 0.0 0.07 0.01 0.00 95 1013.3
20260508050712 71 58 3.5 0.0 0.00 0.00 0.00 95 1013.7
20260508045712 71 46 3.5 0.0 0.00 0.00 0.00 95 1014.4
20260508045005 71 115 0.0 0.0 0.00 0.00 0.00 95 1014.0
20260508044504 71 76 0.0 0.0 0.00 0.00 0.00 95 1014.0
20260508044005 71 54 0.0 0.0 0.00 0.00 0.00 94 1013.7
20260508043505 71 144 3.5 0.0 0.00 0.00 0.00 94 1013.7
20260508043005 71 99 0.0 0.0 0.00 0.00 0.00 94 1014.0
20260508042505 71 105 3.5 0.0 0.00 0.00 0.00 94 1014.0
20260508042005 71 59 3.5 0.0 0.00 0.00 0.00 94 1014.0
20260508041505 71 49 0.0 0.0 0.00 0.00 0.00 93 1014.4
20260508041005 71 81 0.0 0.0 0.00 0.00 0.00 93 1014.4
20260508040505 71 88 3.5 0.0 0.00 0.00 0.00 93 1014.4
20260508040005 71 109 3.5 0.0 0.00 0.00 0.00 93 1014.4
20260508035505 71 64 0.0 0.0 0.00 0.00 0.00 93 1014.0
20260508035005 71 351 3.5 0.0 0.00 0.00 0.00 93 1014.4
20260508034505 71 323 11.3 0.0 0.00 0.00 0.00 93 1014.4
20260508034005 71 58 20.0 0.0 0.00 0.00 0.00 92 1014.0
20260508033713 71 31 3.5 0.0 0.00 0.00 0.00 92 1014.4
20260508033005 71 39 3.5 0.0 0.00 0.00 0.00 92 1014.4
20260508032505 71 34 3.5 0.0 0.00 0.00 0.00 92 1014.4
20260508032004 71 68 3.5 0.0 0.00 0.00 0.00 92 1014.4
20260508031505 71 70 3.5 0.0 0.00 0.00 0.00 91 1014.4
20260508031005 71 286 7.8 0.0 0.00 0.00 0.00 91 1014.0
20260508030505 71 320 3.5 0.0 0.00 0.00 0.00 91 1014.0
20260508030005 71 113 7.8 0.0 0.00 0.00 0.00 91 1014.0
20260508025505 71 46 3.5 0.0 0.00 0.00 0.00 91 1013.7
20260508025005 71 41 11.3 0.0 0.00 0.00 0.00 90 1014.0
20260508024505 71 302 11.3 0.0 0.00 0.00 0.00 90 1014.0
20260508024005 71 24 7.8 0.0 0.00 0.00 0.00 90 1013.7
20260508023713 71 277 15.6 0.0 0.00 0.00 0.00 90 1014.0
20260508023005 71 28 3.5 0.0 0.00 0.00 0.00 90 1014.4
20260508022505 71 47 11.3 0.0 0.00 0.00 0.00 89 1014.4
20260508022005 71 301 11.3 0.0 0.00 0.00 0.00 89 1014.0
20260508021505 71 6 3.5 0.0 0.00 0.00 0.00 89 1014.0
20260508021005 71 355 11.3 0.0 0.00 0.00 0.00 89 1013.7
20260508020504 71 302 11.3 0.0 0.00 0.00 0.00 89 1014.0
20260508020005 71 54 15.6 0.0 0.00 0.00 0.00 89 1014.0
20260508015505 71 342 11.3 0.0 0.00 0.00 0.00 89 1014.0
20260508015005 71 16 7.8 0.0 0.00 0.00 0.00 89 1013.7
20260508014505 71 247 7.8 0.0 0.00 0.00 0.00 89 1013.3
20260508014005 71 331 15.6 0.0 0.00 0.00 0.00 89 1013.3
20260508013505 71 31 11.3 0.0 0.00 0.00 0.00 89 1013.7
20260508013006 71 44 7.8 0.0 0.00 0.00 0.00 88 1013.3
20260508012505 71 20 15.6 0.0 0.00 0.00 0.00 89 1013.3
20260508012005 71 349 7.8 0.0 0.00 0.00 0.00 89 1013.7
20260508011505 71 80 7.8 0.0 0.00 0.00 0.00 88 1013.3
20260508011211 71 25 11.3 0.0 0.00 0.00 0.00 88 1013.3
20260508010505 71 29 7.8 0.0 0.00 0.00 0.00 88 1013.3
20260508010005 71 15 3.5 0.0 0.00 0.00 0.00 87 1013.0
20260508005505 71 342 11.3 0.0 0.00 0.00 0.00 87 1012.7
20260508005213 72 31 11.3 0.0 0.00 0.00 0.00 86 1012.7
20260508004504 72 1 7.8 0.0 0.00 0.00 0.00 86 1013.0
20260508004005 72 16 3.5 0.0 0.00 0.00 0.00 86 1013.0
20260508003505 72 17 20.0 0.0 0.00 0.00 0.00 86 1012.7
20260508003213 72 67 11.3 0.0 0.00 0.00 0.00 86 1013.0
20260508002505 72 36 7.8 0.0 0.00 0.00 0.00 86 1013.0
20260508002004 72 302 20.0 0.0 0.00 0.00 0.00 85 1013.3
20260508001505 72 29 3.5 0.0 0.00 0.00 0.00 85 1013.3
20260508001005 72 304 27.8 0.0 0.00 0.00 0.00 85 1013.3
20260508000712 73 345 23.5 0.0 0.00 0.00 0.00 84 1013.0
20260508000005 73 343 7.8 0.0 0.00 0.00 0.00 84 1012.7
20260507235505 73 38 20.0 0.0 0.00 0.00 0.00 84 1012.3
20260507235005 73 301 3.5 0.0 0.00 0.00 0.00 84 1012.7
20260507234505 73 63 20.0 0.0 0.00 0.00 0.00 84 1012.3
20260507234005 73 309 20.0 0.0 0.00 0.00 0.00 84 1012.3
20260507233505 73 29 23.5 0.0 0.00 0.00 0.00 83 1012.3
20260507233005 73 333 11.3 0.0 0.00 0.00 0.00 82 1012.3
20260507232711 74 345 20.0 0.0 0.00 0.00 0.00 82 1012.3
20260507232005 74 294 7.8 0.0 0.00 0.00 0.00 82 1012.0
20260507231505 74 27 7.8 0.0 0.00 0.00 0.00 82 1012.0
20260507231212 73 64 3.5 0.0 0.00 0.00 0.00 82 1012.0
20260507230713 74 83 3.5 0.0 0.00 0.00 0.00 82 1012.3
20260507230212 74 80 11.3 0.0 0.00 0.00 0.00 82 1012.3
20260507225505 74 38 15.6 0.0 0.00 0.00 0.00 82 1012.3
20260507225212 74 8 7.8 0.0 0.00 0.00 0.00 82 1012.3
20260507224505 74 87 15.6 0.0 0.00 0.00 0.00 82 1012.3
20260507224005 74 43 7.8 0.0 0.00 0.00 0.00 81 1012.3
20260507223505 74 322 7.8 0.0 0.00 0.00 0.00 82 1012.7
20260507223005 74 40 15.6 0.0 0.00 0.00 0.00 82 1012.7
20260507222505 74 37 3.5 0.0 0.00 0.00 0.00 82 1012.3
20260507222005 74 32 20.0 0.0 0.00 0.00 0.00 81 1012.7
20260507221505 74 329 20.0 0.0 0.00 0.00 0.00 81 1012.3
20260507221005 74 333 7.8 0.0 0.00 0.00 0.00 81 1012.3
20260507220505 74 15 3.5 0.0 0.00 0.00 0.00 81 1012.3
20260507220212 74 359 15.6 0.0 0.00 0.00 0.00 80 1012.3
20260507215505 74 41 15.6 0.0 0.00 0.00 0.00 81 1012.3
20260507215212 74 41 11.3 0.0 0.00 0.00 0.00 82 1012.7
20260507214505 74 151 3.5 0.0 0.00 0.00 0.00 81 1012.7
20260507214005 74 37 20.0 0.0 0.00 0.00 0.00 81 1012.7
20260507213505 74 32 3.5 0.0 0.00 0.00 0.00 81 1012.7
20260507213005 74 18 23.5 0.0 0.00 0.00 0.00 81 1012.3
20260507212504 74 331 15.6 0.0 0.00 0.00 0.00 80 1012.7
20260507212005 74 321 20.0 0.0 0.00 0.00 0.00 80 1012.7
20260507211505 75 340 23.5 0.0 0.00 0.00 0.00 80 1012.7
20260507211005 76 357 11.3 0.0 0.00 0.00 0.00 77 1012.7
20260507210505 76 21 7.8 0.0 0.00 0.00 0.00 78 1012.7
20260507210006 76 137 11.3 0.0 0.00 0.00 0.00 76 1012.7
20260507205505 75 31 3.5 0.0 0.00 0.00 0.00 78 1013.0
20260507205004 75 319 11.3 0.0 0.00 0.00 0.00 79 1013.0
20260507204505 75 53 7.8 0.0 0.00 0.00 0.00 79 1013.0
20260507204005 76 102 15.6 0.0 0.00 0.00 0.00 78 1013.3
20260507203505 76 12 11.3 0.0 0.00 0.00 0.00 77 1013.3
20260507203005 77 72 3.5 0.0 0.00 0.00 0.00 76 1013.3
20260507202505 77 65 7.8 0.0 0.00 0.00 0.00 76 1013.3
20260507202005 76 31 27.8 0.0 0.00 0.00 0.00 76 1013.3
20260507201505 76 78 7.8 0.0 0.00 0.00 0.00 76 1013.7
20260507201213 76 29 15.6 0.0 0.00 0.00 0.00 77 1013.7
20260507200505 76 5 11.3 0.0 0.00 0.00 0.00 77 1013.7